EWG9QR EDDL-LEIB

Flight info

Callsign EWG9QR
Flight time N/A
Altitude 24000
Route MODRU7Z MODRU Z283 LNO/N0445F370 Z283 SOPOK DCT ROUSY DCT GTQ DCT POGOL DCT LASAT DCT MOROK DCT GILIR DCT GEVEA DCT INCUS DCT BALSI DCT RETNO DCT TUPOX DCT MTG DCT DIVKO DCT VATIR DCT PIVUS Z237 SULID DCT DIMIB DCT POS
Aircraft A319/M-SDE3FGHIRWY/LB1

Departure

Time 2026-04-30 15:03
Airport Düsseldorf Airport (EDDL)

Arrival

Time N/A
Airport Ibiza Airport (LEIB)
Time Latitude Longitude Altitude Speed Heading
2026-04-30 14:49 51.27942 6.76176 127 ft 0 kts 91°
2026-04-30 14:57 51.27942 6.76135 145 ft 4 kts 87°
2026-04-30 14:58 51.27929 6.76056 129 ft 4 kts 34°
2026-04-30 14:58 51.27919 6.76048 128 ft 0 kts
2026-04-30 15:00 51.27944 6.76049 126 ft 5 kts 359°
2026-04-30 15:00 51.28052 6.76048 130 ft 10 kts
2026-04-30 15:01 51.28180 6.76091 128 ft 9 kts 356°
2026-04-30 15:01 51.28246 6.76049 124 ft 11 kts 339°
2026-04-30 15:01 51.28401 6.76128 129 ft 22 kts 52°
2026-04-30 15:02 51.28601 6.76548 126 ft 80 kts 53°
2026-04-30 15:02 51.29067 6.77538 138 ft 140 kts 59°
2026-04-30 15:03 51.30816 6.81470 1936 ft 158 kts 56°
2026-04-30 15:03 51.32360 6.84644 2763 ft 206 kts 56°
2026-04-30 15:04 51.34286 6.88717 3940 ft 249 kts 56°
2026-04-30 15:04 51.39459 6.91709 6904 ft 282 kts 14°
2026-04-30 15:05 51.45341 6.93172 9796 ft 292 kts
2026-04-30 15:06 51.49322 6.91413 11322 ft 321 kts 328°
2026-04-30 15:06 51.51962 6.85076 11981 ft 368 kts 290°
2026-04-30 15:07 51.53782 6.77230 13412 ft 378 kts 292°
2026-04-30 15:07 51.55001 6.68960 14812 ft 386 kts 271°
2026-04-30 15:08 51.54067 6.60522 16113 ft 391 kts 246°
2026-04-30 15:08 51.50297 6.48734 18063 ft 400 kts 241°
2026-04-30 15:09 51.47640 6.40854 19257 ft 406 kts 234°
2026-04-30 15:09 51.43694 6.34392 20404 ft 407 kts 212°
2026-04-30 15:10 51.38574 6.30535 21556 ft 409 kts 197°
2026-04-30 15:11 51.27705 6.24149 23633 ft 423 kts 198°
2026-04-30 15:11 51.22160 6.20890 24517 ft 429 kts 198°
2026-04-30 15:12 51.13686 6.15942 25856 ft 434 kts 198°
2026-04-30 15:13 51.08004 6.12632 26698 ft 439 kts 197°
2026-04-30 15:14 50.96845 6.04161 28327 ft 453 kts 210°
2026-04-30 15:14 50.88664 5.96542 29460 ft 458 kts 205°
2026-04-30 15:16 50.74356 5.84688 31056 ft 471 kts 206°
2026-04-30 15:17 50.62823 5.74800 32586 ft 467 kts 200°
2026-04-30 15:18 50.47831 5.77355 34695 ft 441 kts 154°
2026-04-30 15:19 50.39368 5.82925 35784 ft 440 kts 154°